SCP
0 0 0 0 0 0 0 0 -0 -0 -0 -0 -0 -0 -0 -0 0 0 0 0 0 0 0 0 0 0 0 0 0 0 0 0 0 0 0 0 0 0 0 0 0 0 0 0 0 0 0
0 0 0 0 0 0 0 -0 -0 -0 -0 -0 -0 -0 -0 -0 0 0 0 0 0 0 0 0 0 0 0 0 0 0 0 0 0 0 0 0 0 0 0 0 0 0 0 0 0 0 0
0 0 0 -0 -0 -0 -0 -0 -0 -0 -0 -0 -0 -0 -0 -0 -0 0 0 0 0 0 0 0 0 0 0 0 0 0 0 0 0 0 0 0 0 0 0 0 0 0 0 0 0 0 0
0 0 -0 -0 -0 -0 -0 -0 -0 -0 -0 -0 -0 -0 -0 -0 -0 0 0 0 0 0 0 0 0 0 0 0 0 0 0 0 0 0 0 0 0 0 0 0 0 0 0 0 0 0 0
0 -0 -0 -0 -0 -0 -0 -0 -0 -0 -0 -0 -0 -0 -0 -0 -0 0 0 0 0 0 0 0 0 0 0 0 0 0 0 0 0 0 0 0 0 0 0 0 0 0 0 0 0 0 0
-0 -0 -0 -0 -0 -0 -0 -0 -0 -0 -0 -0 -0 -0 -0 -0 -0 -0 0 0 0 0 0 0 0 0 0 0 0 0 0 0 0 0 0 0 0 0 0 0 0 0 0 0 0 0 0
-0 -0 -0 -0 0 -0 -0 -0 -0 -0 -0 -0 -0 -0 -0 -0 -0 0 0 0 0 0 0 0 0 0 0 0 0 0 0 0 0 0 0 0 0 0 0 0 0 0 0 0 0 0 0
-0 -0 -0 0 0 0 -0 -0 -0 -0 -0 -0 -0 -0 -0 -0 -0 -0 0 0 0 0 0 0 0 0 0 0 0 0 0 0 0 0 0 0 0 0 0 0 0 0 0 0 0 0 0
-0 -0 -0 -0 -0 -0 -0 -0 -0 -0 -0 -0 -0 -0 -0 -0 -0 0 0 0 0 -0 0 0 0 0 0 0 0 0 0 0 0 0 0 0 0 0 0 0 0 0 0 0 0 0 0
0 0 -0 -0 -0 -0 -0 -0 -0 -0 -0 -0 -0 -0 -0 -0 0 0 0 0 -0 -0 0 -0 0 0 0 0 0 0 0 0 0 0 0 0 0 0 0 0 0 0 0 0 0 0 0
0 0 0 0 -0 -0 -0 -0 -0 -0 -0 -0 -0 -0 -0 0 0 0 0 -0 -0 0 0 0 0 0 0 0 0 0 0 0 0 0 0 0 0 0 0 0 0 0 0 0 0 0 0
0 0 0 0 0 0 -0 -0 -0 -0 -0 -0 -0 -0 -0 0 0 0 0 -0 0 0 0 0 0 0 0 0 0 0 0 0 0 0 0 0 0 0 0 0 0 0 0 0 0 0 0
0 0 0 0 0 0 0 0 -0 -0 -0 -0 0 0 -0 -0 0 0 -0 0 0 0 0 0 0 0 0 0 0 0 0 0 0 0 0 0 0 0 0 0 0 0 0 0 0 0 0
0 0 0 0 0 0 0 0 0 0 0 -0 -0 -0 -0 -0 0 0 0 0 0 0 0 0 0 0 0 0 0 0 0 0 0 0 0 0 0 0 0 0 0 0 0 0 0 0 0
0 0 0 0 0 0 0 0 0 0 0 0 0 0 0 0 0 0 0 0 0 0 0 0 0 0 0 0 0 0 0 0 0 0 0 0 0 0 0 0 0 0 0 0 0 0 0
0 0 0 0 0 0 0 0 0 0 0 0 0 0 0 0 0 0 0 0 0 0 0 0 0 0 0 0 0 0 0 0 0 0 0 0 0 0 0 0 0 0 0 0 0 0 0
0 0 0 0 0 -0 -0 0 0 0 0 0 0 0 0 0 0 0 0 0 0 0 0 0 0 0 0 0 0 0 0 0 0 0 0 0 0 0 0 0 0 0 0 0 0 0 0
0 0 0 0 0 0 0 0 0 0 0 0 0 0 0 0 0 0 0 0 0 0 0 0 0 0 0 0 0 0 0 0 0 0 0 0 0 0 0 0 0 0 0 0 0 0 0
0 0 0 0 0 0 0 0 0 0 0 0 0 0 0 0 0 0 0 0 0 0 0 0 0 0 0 0 0 0 0 0 0 0 0 0 0 0 0 0 0 0 0 0 0 0 0
0 0 0 0 0 0 0 0 0 0 0 0 0 0 0 0 0 0 0 0 0 0 0 0 0 0 0 0 0 0 0 0 0 0 0 0 0 0 0 0 0 0 0 0 0 0 0
0 0 0 0 0 0 0 0 0 0 0 0 0 0 0 0 0 0 0 0 0 0 0 0 0 0 0 0 0 0 0 0 0 0 0 0 0 0 0 0 0 0 0 0 0 0 0
0 0 0 0 0 0 0 0 0 0 0 0 0 0 0 0 0 0 0 0 0 0 0 0 0 0 0 0 0 0 0 0 0 0 0 0 0 0 0 0 0 0 0 0 0 0 0
0 0 0 0 0 0 0 0 0 0 0 0 0 0 0 0 0 0 0 0 0 0 0 0 0 0 0 0 0 0 0 0 0 0 0 0 0 0 0 0 0 0 0 0 0 0 0
0 0 0 0 0 0 0 0 0 0 0 0 0 0 0 0 0 0 0 0 0 0 0 0 0 0 0 0 0 0 0 0 0 0 0 0 0 0 0 0 0 0 0 0 0 0 0
0 0 0 0 0 0 0 0 0 0 0 0 0 0 0 0 0 0 0 0 0 0 0 0 0 0 0 0 0 0 0 0 0 0 0 0 0 0 0 0 0 0 0 0 0 0 0
0 0 0 0 0 0 0 0 0 0 0 0 0 0 0 0 0 0 0 0 0 0 0 0 0 0 0 0 0 0 0 0 0 0 0 0 0 0 0 0 0 0 0 0 0 0 0
0 0 0 0 0 0 0 0 0 0 0 0 0 0 0 0 0 0 0 0 0 0 0 0 0 0 0 0 0 0 0 0 0 0 0 0 0 0 0 0 0 0 0 0 0 0 0
0 0 0 0 0 0 0 0 0 0 0 0 0 0 0 0 0 0 0 0 0 0 0 0 0 0 0 0 0 0 0 0 0 0 0 0 0 0 0 0 0 0 0 0 0 0 0
0 0 0 0 0 0 0 0 0 0 0 0 0 0 0 0 0 0 0 0 0 0 0 0 0 0 0 0 0 0 0 0 0 0 0 0 0 0 0 0 0 0 0 0 0 0 0
Wind_Speed_500mb
22 23 24 27 32 37 41 45 45 43 41 43 41 40 41 46 32 20 17 18 21 24 25 24 26 17 12 18 15 25 21 20 17 18 26 15 25 12 9 8 13 10 5 11 11 7 4
21 22 26 29 32 37 41 45 47 43 41 40 39 38 42 44 31 25 22 21 22 25 26 24 18 12 14 14 18 27 24 19 19 18 22 24 14 13 8 8 9 5 9 13 7 6 6
21 24 26 30 35 37 39 44 47 43 40 38 35 36 37 37 25 22 21 20 21 23 25 24 20 24 33 17 21 29 24 18 20 17 16 18 15 10 5 3 3 4 1 3 12 13 3
20 23 26 33 37 40 43 45 46 43 40 36 31 30 31 36 21 19 21 25 30 27 20 15 13 13 13 22 24 30 22 16 15 15 15 13 12 13 9 3 2 3 3 4 5 21 7
20 24 29 34 40 44 47 46 46 43 39 34 31 28 26 31 21 21 22 24 20 18 19 14 15 9 7 14 31 38 25 19 15 16 15 13 8 9 9 3 8 13 5 9 7 24 7
18 26 32 35 40 46 49 47 45 41 37 35 33 28 22 26 14 16 22 25 19 8 4 8 13 7 12 11 23 40 20 15 13 17 8 12 9 8 10 13 1 9 8 10 10 6 7
19 28 34 38 45 50 50 47 44 40 35 33 32 29 23 17 19 9 16 7 4 10 33 21 13 6 8 14 13 35 24 10 11 8 7 8 15 7 8 4 5 10 8 11 9 4 9
23 28 34 40 46 52 51 46 42 37 33 32 32 30 24 10 19 9 9 5 4 17 17 17 16 13 13 12 13 38 30 9 12 7 11 12 5 4 9 8 6 9 7 8 12 11 11
22 29 35 40 48 53 51 46 40 35 32 33 34 32 25 10 16 12 11 11 21 13 7 7 10 13 14 7 7 29 35 9 9 10 11 9 4 7 5 9 12 9 3 5 12 14 8
22 27 34 39 48 55 53 47 40 35 35 35 36 34 27 13 7 18 10 13 13 5 8 14 7 11 17 10 4 24 28 12 7 7 6 5 2 7 8 2 5 9 7 3 11 9 6
22 27 32 39 46 53 54 46 38 34 34 36 36 32 25 22 13 17 10 9 11 5 8 7 8 10 11 11 15 25 18 9 4 7 7 7 4 6 5 4 2 15 17 15 7 2 6
25 29 32 41 44 50 53 45 37 33 33 34 35 30 24 25 20 16 6 12 11 10 4 8 6 12 6 11 6 17 13 14 5 4 1 4 1 1 4 11 8 13 13 9 7 5 4
28 32 33 39 43 47 51 46 37 32 31 32 31 26 22 29 22 13 8 7 9 11 3 6 6 8 7 8 8 8 7 13 9 11 12 11 3 3 3 9 9 16 11 8 10 7 8
28 31 34 38 41 45 47 45 37 33 32 30 29 23 15 27 18 11 5 7 11 3 3 4 5 7 3 6 3 8 6 6 11 8 2 7 13 1 4 3 3 6 7 7 8 6 10
27 33 36 38 39 46 40 42 36 33 33 31 29 21 11 25 20 11 1 11 6 2 2 7 9 6 4 5 3 9 5 4 2 6 5 9 10 3 1 1 4 6 7 4 3 6 3
35 36 38 37 42 41 39 40 34 31 32 32 30 17 13 23 16 11 9 6 5 3 4 1 5 1 5 9 7 9 5 5 6 1 4 1 10 6 2 2 2 2 3 6 5 8 10
41 39 40 40 41 40 40 40 35 30 28 29 26 10 11 21 11 7 7 5 6 4 2 4 2 3 4 3 3 5 4 2 4 4 3 1 5 12 4 5 7 1 0 1 3 8 7
42 38 36 40 41 43 41 38 35 32 27 24 14 6 15 15 3 7 5 3 6 7 3 3 2 2 2 5 6 5 4 2 11 6 2 4 4 8 15 5 4 3 6 8 6 10 6
36 38 44 41 42 40 40 37 30 29 27 26 20 9 8 8 4 1 4 3 4 5 5 5 3 2 2 4 5 8 2 7 13 8 6 6 3 9 11 2 4 3 5 7 6 4 18
37 42 47 49 45 41 37 32 30 24 21 19 10 6 3 4 5 8 7 5 6 6 5 6 5 3 3 6 10 8 4 9 16 16 16 12 6 12 13 15 7 14 10 14 13 10 12
36 38 44 47 46 41 35 32 26 23 20 12 5 6 4 4 3 4 4 10 9 9 10 13 6 13 13 6 5 11 8 3 11 11 14 11 12 14 26 28 23 33 41 33 25 32 22
42 32 40 42 42 41 38 32 27 24 20 15 7 5 4 7 7 7 7 10 15 7 15 9 10 11 15 13 16 10 2 8 13 7 12 8 8 3 9 24 29 31 41 39 34 36 39
45 48 42 44 38 37 37 35 27 27 23 12 10 14 8 6 4 7 8 11 15 14 18 12 22 8 12 23 32 25 28 21 25 15 14 11 7 2 14 3 10 25 26 13 9 11 11
43 40 41 41 38 35 35 34 32 28 29 28 19 10 7 8 12 11 7 12 11 22 5 8 18 12 9 9 22 32 45 55 44 40 37 12 10 5 8 6 10 12 4 12 17 1 6
53 47 43 42 40 36 35 33 34 34 33 34 34 19 9 7 11 17 27 15 9 18 18 23 25 20 18 9 6 11 9 7 1 4 10 30 12 7 6 10 23 19 4 4 4 4 5
50 51 48 42 41 40 36 35 34 36 37 37 36 33 19 5 12 16 11 22 10 8 6 18 19 21 15 9 4 6 8 8 8 7 6 4 4 11 7 8 12 1 3 9 5 9 7
54 50 50 50 44 42 42 38 36 36 37 39 41 36 30 16 35 35 12 8 13 12 6 7 12 13 20 7 7 10 10 10 9 9 10 6 3 18 20 13 16 4 5 5 4 5 3
53 54 52 51 50 46 42 40 39 38 38 40 46 42 36 20 42 31 20 27 15 14 7 9 3 9 6 8 10 9 10 10 5 7 12 15 15 8 7 9 18 8 1 9 2 4 12
53 52 53 53 53 52 47 43 41 40 40 40 44 44 40 46 32 24 38 53 54 34 18 16 17 9 26 7 7 5 7 5 8 8 8 7 12 8 16 10 8 5 1 2 7 6 11
Wind_Direction_500mb
77 63 51 39 31 22 17 11 8 8 8 9 10 12 13 9 29 58 66 78 82 88 96 100 105 94 73 49 34 8 10 16 19 25 34 48 47 44 60 45 39 82 111 108 136 140 150
69 55 41 30 22 17 10 8 8 9 10 10 11 13 16 20 45 62 76 81 90 96 97 102 90 82 74 74 24 12 14 21 25 31 41 50 49 20 83 58 74 4 168 165 189 184 219
60 45 33 21 14 10 5 5 8 9 10 11 14 16 18 26 49 63 73 84 99 104 98 96 92 81 68 51 20 13 0 26 30 36 43 48 45 50 30 85 70 156 148 249 211 203 227
51 37 24 19 17 11 6 6 7 8 9 13 18 18 21 26 47 75 83 93 97 106 97 80 86 67 75 37 21 15 24 16 26 41 35 38 44 50 49 30 284 253 91 343 250 184 206
42 28 19 17 13 8 5 4 5 7 9 14 18 20 27 30 60 88 94 103 97 95 80 70 63 73 47 25 23 16 17 22 42 49 33 37 40 44 354 45 22 18 309 324 324 195 144
34 24 20 18 12 7 4 3 4 6 11 15 17 20 27 33 57 93 107 98 84 92 26 76 60 85 32 349 5 11 16 34 32 12 22 29 38 58 18 38 20 309 337 306 300 241 195
19 16 18 16 11 7 5 4 4 7 12 17 17 19 19 35 41 138 137 112 107 66 67 67 59 67 7 6 12 5 7 32 4 23 33 38 61 35 337 320 243 276 270 292 298 236 315
14 16 17 12 9 6 4 4 4 7 12 15 13 12 12 27 30 34 240 256 131 132 87 70 62 39 24 8 10 12 15 45 32 30 14 28 70 296 291 314 281 316 290 333 297 318 316
17 18 15 11 8 6 4 3 4 6 10 11 9 9 11 17 34 27 63 124 138 131 88 45 34 17 16 3 19 3 9 12 35 32 17 124 242 314 306 17 5 334 107 303 262 321 304
12 14 13 10 8 6 4 2 3 5 6 8 9 9 13 22 17 16 50 148 154 151 80 330 7 356 2 352 23 5 9 19 28 34 2 97 259 344 331 88 47 312 196 306 299 30 304
4 7 7 5 2 2 3 360 1 4 4 5 7 9 15 19 20 13 3 160 171 144 52 324 336 349 4 41 330 4 3 23 73 312 58 279 347 2 338 294 69 250 306 285 222 217 8
345 347 358 357 357 358 358 358 359 360 1 2 3 6 11 10 10 10 67 130 141 47 287 333 359 359 24 33 9 347 14 11 3 341 222 286 72 152 242 287 222 295 317 5 81 95 7
333 342 345 350 353 353 353 353 354 355 356 355 358 1 9 5 6 18 123 136 42 88 248 337 331 352 350 331 329 348 72 23 41 18 4 335 267 263 315 327 358 14 19 349 1 7 240
312 325 329 339 343 346 348 349 347 347 348 349 351 354 4 3 12 23 124 60 75 193 55 249 256 313 320 4 304 328 70 37 9 34 345 7 332 248 348 105 279 314 105 117 301 299 285
301 311 319 329 336 338 343 345 343 343 342 344 344 348 9 10 12 10 100 56 177 59 293 358 328 340 294 299 325 8 70 140 196 28 74 6 282 21 352 43 88 332 53 180 263 290 349
295 304 311 317 327 333 337 341 338 339 339 340 342 343 12 7 0 3 68 140 144 58 359 341 43 41 338 321 27 16 210 230 184 79 92 334 297 262 184 96 41 110 221 30 23 322 296
286 298 303 309 321 328 331 336 333 333 336 338 338 343 358 358 357 34 107 165 130 138 98 75 347 302 316 307 282 274 245 225 163 213 348 315 143 293 23 203 196 32 31 195 196 165 235
279 283 291 300 310 317 321 329 328 328 334 336 336 332 338 351 37 64 116 115 154 168 158 168 200 268 298 319 297 279 253 205 157 137 249 207 183 270 250 324 332 149 166 150 140 273 247
263 277 281 289 298 305 313 318 322 322 331 340 329 293 323 350 133 25 192 131 158 142 198 187 234 180 56 273 302 233 300 176 171 159 184 186 265 310 313 5 351 78 221 220 233 209 227
271 273 281 286 288 294 300 307 309 309 314 327 318 339 287 19 102 139 166 192 173 198 200 185 194 153 194 248 223 279 236 206 204 203 175 152 221 195 250 257 279 289 251 234 245 244 268
275 283 286 285 283 288 291 293 295 291 294 307 261 262 258 282 295 123 155 170 180 202 213 202 213 207 181 243 267 226 236 211 223 223 181 178 224 223 247 266 272 268 277 269 236 243 246
268 281 291 285 283 282 283 284 282 271 272 266 274 269 259 269 232 183 190 219 204 191 158 234 209 180 203 211 201 232 257 193 227 183 168 196 263 289 252 255 250 267 267 262 250 252 248
261 265 274 285 284 281 277 273 268 264 258 244 242 265 255 265 208 126 226 220 211 181 229 217 208 191 234 237 251 265 271 246 242 184 197 174 198 221 271 39 301 279 251 229 211 206 213
261 263 271 277 278 279 273 269 262 256 254 246 244 258 237 262 190 206 242 214 214 209 234 238 214 176 240 258 294 289 274 262 246 239 217 187 159 182 277 2 248 244 268 228 215 123 347
266 264 264 265 263 265 265 262 258 253 249 249 244 243 239 259 233 266 254 236 248 250 246 241 235 239 244 294 348 331 318 322 280 356 214 220 165 214 239 225 290 285 231 199 238 210 25
264 269 269 271 271 268 260 256 254 252 252 250 248 240 238 265 246 262 260 225 192 213 271 220 227 218 215 174 152 244 248 250 262 264 11 56 225 193 164 235 252 211 11 39 35 255 48
258 259 263 268 271 269 265 258 253 250 250 251 249 239 235 246 252 263 262 229 195 205 227 168 196 194 200 177 186 204 235 213 235 225 177 142 201 221 227 247 276 181 152 82 163 292 328
263 260 254 258 265 268 263 259 258 252 247 246 251 239 228 244 253 242 243 240 239 221 194 175 94 203 162 203 199 214 202 223 240 213 179 173 176 196 205 236 267 120 149 183 129 18 338
261 265 264 258 254 258 259 258 256 255 252 248 250 251 247 240 258 262 252 248 248 252 264 226 235 221 213 186 215 210 230 207 195 249 182 220 208 191 191 217 91 57 248 160 342 319 304
Wind_Speed_850mb
22 23 24 27 32 37 41 45 45 43 41 43 41 40 41 46 32 20 17 18 21 24 25 24 26 17 12 18 15 25 21 20 17 18 26 15 25 12 9 8 13 10 5 11 11 7 4
21 22 26 29 32 37 41 45 47 43 41 40 39 38 42 44 31 25 22 21 22 25 26 24 18 12 14 14 18 27 24 19 19 18 22 24 14 13 8 8 9 5 9 13 7 6 6
21 24 26 30 35 37 39 44 47 43 40 38 35 36 37 37 25 22 21 20 21 23 25 24 20 24 33 17 21 29 24 18 20 17 16 18 15 10 5 3 3 4 1 3 12 13 3
20 23 26 33 37 40 43 45 46 43 40 36 31 30 31 36 21 19 21 25 30 27 20 15 13 13 13 22 24 30 22 16 15 15 15 13 12 13 9 3 2 3 3 4 5 21 7
20 24 29 34 40 44 47 46 46 43 39 34 31 28 26 31 21 21 22 24 20 18 19 14 15 9 7 14 31 38 25 19 15 16 15 13 8 9 9 3 8 13 5 9 7 24 7
18 26 32 35 40 46 49 47 45 41 37 35 33 28 22 26 14 16 22 25 19 8 4 8 13 7 12 11 23 40 20 15 13 17 8 12 9 8 10 13 1 9 8 10 10 6 7
19 28 34 38 45 50 50 47 44 40 35 33 32 29 23 17 19 9 16 7 4 10 33 21 13 6 8 14 13 35 24 10 11 8 7 8 15 7 8 4 5 10 8 11 9 4 9
23 28 34 40 46 52 51 46 42 37 33 32 32 30 24 10 19 9 9 5 4 17 17 17 16 13 13 12 13 38 30 9 12 7 11 12 5 4 9 8 6 9 7 8 12 11 11
22 29 35 40 48 53 51 46 40 35 32 33 34 32 25 10 16 12 11 11 21 13 7 7 10 13 14 7 7 29 35 9 9 10 11 9 4 7 5 9 12 9 3 5 12 14 8
22 27 34 39 48 55 53 47 40 35 35 35 36 34 27 13 7 18 10 13 13 5 8 14 7 11 17 10 4 24 28 12 7 7 6 5 2 7 8 2 5 9 7 3 11 9 6
22 27 32 39 46 53 54 46 38 34 34 36 36 32 25 22 13 17 10 9 11 5 8 7 8 10 11 11 15 25 18 9 4 7 7 7 4 6 5 4 2 15 17 15 7 2 6
25 29 32 41 44 50 53 45 37 33 33 34 35 30 24 25 20 16 6 12 11 10 4 8 6 12 6 11 6 17 13 14 5 4 1 4 1 1 4 11 8 13 13 9 7 5 4
28 32 33 39 43 47 51 46 37 32 31 32 31 26 22 29 22 13 8 7 9 11 3 6 6 8 7 8 8 8 7 13 9 11 12 11 3 3 3 9 9 16 11 8 10 7 8
28 31 34 38 41 45 47 45 37 33 32 30 29 23 15 27 18 11 5 7 11 3 3 4 5 7 3 6 3 8 6 6 11 8 2 7 13 1 4 3 3 6 7 7 8 6 10
27 33 36 38 39 46 40 42 36 33 33 31 29 21 11 25 20 11 1 11 6 2 2 7 9 6 4 5 3 9 5 4 2 6 5 9 10 3 1 1 4 6 7 4 3 6 3
35 36 38 37 42 41 39 40 34 31 32 32 30 17 13 23 16 11 9 6 5 3 4 1 5 1 5 9 7 9 5 5 6 1 4 1 10 6 2 2 2 2 3 6 5 8 10
41 39 40 40 41 40 40 40 35 30 28 29 26 10 11 21 11 7 7 5 6 4 2 4 2 3 4 3 3 5 4 2 4 4 3 1 5 12 4 5 7 1 0 1 3 8 7
42 38 36 40 41 43 41 38 35 32 27 24 14 6 15 15 3 7 5 3 6 7 3 3 2 2 2 5 6 5 4 2 11 6 2 4 4 8 15 5 4 3 6 8 6 10 6
36 38 44 41 42 40 40 37 30 29 27 26 20 9 8 8 4 1 4 3 4 5 5 5 3 2 2 4 5 8 2 7 13 8 6 6 3 9 11 2 4 3 5 7 6 4 18
37 42 47 49 45 41 37 32 30 24 21 19 10 6 3 4 5 8 7 5 6 6 5 6 5 3 3 6 10 8 4 9 16 16 16 12 6 12 13 15 7 14 10 14 13 10 12
36 38 44 47 46 41 35 32 26 23 20 12 5 6 4 4 3 4 4 10 9 9 10 13 6 13 13 6 5 11 8 3 11 11 14 11 12 14 26 28 23 33 41 33 25 32 22
42 32 40 42 42 41 38 32 27 24 20 15 7 5 4 7 7 7 7 10 15 7 15 9 10 11 15 13 16 10 2 8 13 7 12 8 8 3 9 24 29 31 41 39 34 36 39
45 48 42 44 38 37 37 35 27 27 23 12 10 14 8 6 4 7 8 11 15 14 18 12 22 8 12 23 32 25 28 21 25 15 14 11 7 2 14 3 10 25 26 13 9 11 11
43 40 41 41 38 35 35 34 32 28 29 28 19 10 7 8 12 11 7 12 11 22 5 8 18 12 9 9 22 32 45 55 44 40 37 12 10 5 8 6 10 12 4 12 17 1 6
53 47 43 42 40 36 35 33 34 34 33 34 34 19 9 7 11 17 27 15 9 18 18 23 25 20 18 9 6 11 9 7 1 4 10 30 12 7 6 10 23 19 4 4 4 4 5
50 51 48 42 41 40 36 35 34 36 37 37 36 33 19 5 12 16 11 22 10 8 6 18 19 21 15 9 4 6 8 8 8 7 6 4 4 11 7 8 12 1 3 9 5 9 7
54 50 50 50 44 42 42 38 36 36 37 39 41 36 30 16 35 35 12 8 13 12 6 7 12 13 20 7 7 10 10 10 9 9 10 6 3 18 20 13 16 4 5 5 4 5 3
53 54 52 51 50 46 42 40 39 38 38 40 46 42 36 20 42 31 20 27 15 14 7 9 3 9 6 8 10 9 10 10 5 7 12 15 15 8 7 9 18 8 1 9 2 4 12
53 52 53 53 53 52 47 43 41 40 40 40 44 44 40 46 32 24 38 53 54 34 18 16 17 9 26 7 7 5 7 5 8 8 8 7 12 8 16 10 8 5 1 2 7 6 11
Wind_Direction_850mb
77 63 51 39 31 22 17 11 8 8 8 9 10 12 13 9 29 58 66 78 82 88 96 100 105 94 73 49 34 8 10 16 19 25 34 48 47 44 60 45 39 82 111 108 136 140 150
69 55 41 30 22 17 10 8 8 9 10 10 11 13 16 20 45 62 76 81 90 96 97 102 90 82 74 74 24 12 14 21 25 31 41 50 49 20 83 58 74 4 168 165 189 184 219
60 45 33 21 14 10 5 5 8 9 10 11 14 16 18 26 49 63 73 84 99 104 98 96 92 81 68 51 20 13 0 26 30 36 43 48 45 50 30 85 70 156 148 249 211 203 227
51 37 24 19 17 11 6 6 7 8 9 13 18 18 21 26 47 75 83 93 97 106 97 80 86 67 75 37 21 15 24 16 26 41 35 38 44 50 49 30 284 253 91 343 250 184 206
42 28 19 17 13 8 5 4 5 7 9 14 18 20 27 30 60 88 94 103 97 95 80 70 63 73 47 25 23 16 17 22 42 49 33 37 40 44 354 45 22 18 309 324 324 195 144
34 24 20 18 12 7 4 3 4 6 11 15 17 20 27 33 57 93 107 98 84 92 26 76 60 85 32 349 5 11 16 34 32 12 22 29 38 58 18 38 20 309 337 306 300 241 195
19 16 18 16 11 7 5 4 4 7 12 17 17 19 19 35 41 138 137 112 107 66 67 67 59 67 7 6 12 5 7 32 4 23 33 38 61 35 337 320 243 276 270 292 298 236 315
14 16 17 12 9 6 4 4 4 7 12 15 13 12 12 27 30 34 240 256 131 132 87 70 62 39 24 8 10 12 15 45 32 30 14 28 70 296 291 314 281 316 290 333 297 318 316
17 18 15 11 8 6 4 3 4 6 10 11 9 9 11 17 34 27 63 124 138 131 88 45 34 17 16 3 19 3 9 12 35 32 17 124 242 314 306 17 5 334 107 303 262 321 304
12 14 13 10 8 6 4 2 3 5 6 8 9 9 13 22 17 16 50 148 154 151 80 330 7 356 2 352 23 5 9 19 28 34 2 97 259 344 331 88 47 312 196 306 299 30 304
4 7 7 5 2 2 3 360 1 4 4 5 7 9 15 19 20 13 3 160 171 144 52 324 336 349 4 41 330 4 3 23 73 312 58 279 347 2 338 294 69 250 306 285 222 217 8
345 347 358 357 357 358 358 358 359 360 1 2 3 6 11 10 10 10 67 130 141 47 287 333 359 359 24 33 9 347 14 11 3 341 222 286 72 152 242 287 222 295 317 5 81 95 7
333 342 345 350 353 353 353 353 354 355 356 355 358 1 9 5 6 18 123 136 42 88 248 337 331 352 350 331 329 348 72 23 41 18 4 335 267 263 315 327 358 14 19 349 1 7 240
312 325 329 339 343 346 348 349 347 347 348 349 351 354 4 3 12 23 124 60 75 193 55 249 256 313 320 4 304 328 70 37 9 34 345 7 332 248 348 105 279 314 105 117 301 299 285
301 311 319 329 336 338 343 345 343 343 342 344 344 348 9 10 12 10 100 56 177 59 293 358 328 340 294 299 325 8 70 140 196 28 74 6 282 21 352 43 88 332 53 180 263 290 349
295 304 311 317 327 333 337 341 338 339 339 340 342 343 12 7 0 3 68 140 144 58 359 341 43 41 338 321 27 16 210 230 184 79 92 334 297 262 184 96 41 110 221 30 23 322 296
286 298 303 309 321 328 331 336 333 333 336 338 338 343 358 358 357 34 107 165 130 138 98 75 347 302 316 307 282 274 245 225 163 213 348 315 143 293 23 203 196 32 31 195 196 165 235
279 283 291 300 310 317 321 329 328 328 334 336 336 332 338 351 37 64 116 115 154 168 158 168 200 268 298 319 297 279 253 205 157 137 249 207 183 270 250 324 332 149 166 150 140 273 247
263 277 281 289 298 305 313 318 322 322 331 340 329 293 323 350 133 25 192 131 158 142 198 187 234 180 56 273 302 233 300 176 171 159 184 186 265 310 313 5 351 78 221 220 233 209 227
271 273 281 286 288 294 300 307 309 309 314 327 318 339 287 19 102 139 166 192 173 198 200 185 194 153 194 248 223 279 236 206 204 203 175 152 221 195 250 257 279 289 251 234 245 244 268
275 283 286 285 283 288 291 293 295 291 294 307 261 262 258 282 295 123 155 170 180 202 213 202 213 207 181 243 267 226 236 211 223 223 181 178 224 223 247 266 272 268 277 269 236 243 246
268 281 291 285 283 282 283 284 282 271 272 266 274 269 259 269 232 183 190 219 204 191 158 234 209 180 203 211 201 232 257 193 227 183 168 196 263 289 252 255 250 267 267 262 250 252 248
261 265 274 285 284 281 277 273 268 264 258 244 242 265 255 265 208 126 226 220 211 181 229 217 208 191 234 237 251 265 271 246 242 184 197 174 198 221 271 39 301 279 251 229 211 206 213
261 263 271 277 278 279 273 269 262 256 254 246 244 258 237 262 190 206 242 214 214 209 234 238 214 176 240 258 294 289 274 262 246 239 217 187 159 182 277 2 248 244 268 228 215 123 347
266 264 264 265 263 265 265 262 258 253 249 249 244 243 239 259 233 266 254 236 248 250 246 241 235 239 244 294 348 331 318 322 280 356 214 220 165 214 239 225 290 285 231 199 238 210 25
264 269 269 271 271 268 260 256 254 252 252 250 248 240 238 265 246 262 260 225 192 213 271 220 227 218 215 174 152 244 248 250 262 264 11 56 225 193 164 235 252 211 11 39 35 255 48
258 259 263 268 271 269 265 258 253 250 250 251 249 239 235 246 252 263 262 229 195 205 227 168 196 194 200 177 186 204 235 213 235 225 177 142 201 221 227 247 276 181 152 82 163 292 328
263 260 254 258 265 268 263 259 258 252 247 246 251 239 228 244 253 242 243 240 239 221 194 175 94 203 162 203 199 214 202 223 240 213 179 173 176 196 205 236 267 120 149 183 129 18 338
261 265 264 258 254 258 259 258 256 255 252 248 250 251 247 240 258 262 252 248 248 252 264 226 235 221 213 186 215 210 230 207 195 249 182 220 208 191 191 217 91 57 248 160 342 319 304